Location: Diebersbach
(48.5163°N, 8.0558°E)
Time: 03:01:38
(UTC+00:00)

USA 229 - Pass Details

Date: 26 October 2021
Orbit: 946 x 1266 km, 63.4° (Epoch: 25 November)

Event Time Altitude Azimuth Distance (km) Brightness Sun altitude
Exits shadow 02:16:40 11° 151° (SSE) 3,145 6.1 -37.5°
Drops below altitude 10° 02:16:52 10° 151° (SSE) 3,213 6.2 -37.5°
Sets 02:19:42 0° 149° (SSE) 4,196 6.9 -37.1°
